Weather Roundup
Issued by NWS Chicago, IL

Home | Current Version | Previous Version | Text Only | Print | Product List | Glossary Off
Versions: 1 2 3 4 5 6 7 8 9 10 11 12 13 14 15 16 17 18 19 20 21 22 23 24 25 26 27 28 29 30 31 32 33 34 35 36 37 38 39 40 41 42 43 44 45 46 47 48 49 50

000
NZUS59 KLOT 100012
HRRLOT

CHICAGO AREA WEATHER ROUNDUP
NATIONAL WEATHER SERVICE CHICAGO/ROMEOVILLE IL
600 PM CST FRI DEC 09 2016

NOTE: "FAIR" INDICATES FEW OR NO CLOUDS BELOW 12,000 FEET WITH NO
SIGNIFICANT WEATHER AND/OR OBSTRUCTIONS TO VISIBILITY.

* THESE STATIONS ARE NOT UNDER NWS QUALITY CONTROL. THEY ALSO MAY NOT
  REPORT WEATHER SUCH AS PRECIPITATION OR FOG.

ILZ005-006-012>014-019>023-100100-
NORTHEAST ILLINOIS

CITY           SKY/WX    TMP DP  RH WIND       PRES   REMARKS
OHARE          MOCLDY    21  12  68 W10       30.51R WCI  10
6HR MIN TEMP:  21; 6HR MAX TEMP:  25; 6HR PCP: TRACE;

MIDWAY         MOCLDY    23  11  60 W9        30.52R WCI  13
6HR MIN TEMP:  22; 6HR MAX TEMP:  26; 6HR PCP: TRACE;

AURORA         CLEAR     14   9  80 W6        30.53S WCI   5
6HR MIN TEMP:  14; 6HR MAX TEMP:  25;

LANSING*       CLEAR     20  15  78 W5        30.53S WCI  14
JOLIET*        CLEAR     22  14  73 W3        30.54S
WAUKEGAN       CLEAR     21  11  65 VRB3      30.49R
6HR MIN TEMP:  21; 6HR MAX TEMP:  27;

DUPAGE AIRPORT CLEAR     20  11  68 W8        30.51R WCI  10
6HR MIN TEMP:  19; 6HR MAX TEMP:  24;

WHEELING       CLEAR     22  12  65 W7        30.52S WCI  13
6HR MIN TEMP:  22; 6HR MAX TEMP:  26;

KANKAKEE*      CLOUDY    24  13  63 W8        30.55S WCI  15
MORRIS*        CLEAR     17  13  82 CALM      30.53S
LEWIS AIRPORT* CLEAR     18  15  86 W6        30.53S WCI  10
NORTHERLY ISL    N/A     24  13  62 W8          N/A  WCI  15
$$

WIZ051-052-058>065-066-070>072-100100-
SOUTHEAST WISCONSIN

CITY           SKY/WX    TMP DP  RH WIND       PRES   REMARKS
MILWAUKEE      MOCLDY    23   9  55 W7        30.48S WCI  15
6HR MIN TEMP:  23; 6HR MAX TEMP:  28;

KENOSHA*       CLEAR     20  11  68 W6        30.49S WCI  12
RACINE*        CLEAR     22   8  55 W5        30.50S WCI  16
BURLINGTON     CLEAR     23  17  75 CALM      30.49S
WAUKESHA       CLEAR     18  10  73 SW9       30.48S WCI   6
WEST BEND      CLEAR     19  10  68 W3        30.46R
$$

INZ001>003-010>013-019-020-100100-
NORTHWEST INDIANA

CITY           SKY/WX    TMP DP  RH WIND       PRES   REMARKS
GARY*          PTCLDY    23  14  68 W10       30.53R WCI  12
MICHIGAN CITY* NOT AVBL
RENSSELAER*    NOT AVBL
VALPARAISO     PTCLDY    22  12  65 W8        30.52R WCI  12
$$

LMZ740>746-100100-
SOUTHERN LAKE MICHIGAN

STATION/POSITION TIME  SKY/WX   TEMP WIND        PRES    VSBY
                                AIR  DIR/SP/G
                 (UTC)          (F)  (DEG/KT/KT) (MB)    (MI)
HARRISON CRIB    2310            25  260/ 15/ 16   N/A
BURNHAM HARBOR   0000            23  260/  7/ 11   N/A
CALUMET HARBOR   2348            22  230/  5/  9 1032.8R
BURNS HARBOR     2340            25  230/ 13/ 18 1033.5R
MICHIGAN CITY    NOT AVBL
$$

ABBREVIATIONS USED IN REMARKS
   TC - TEMPERATURE IN CELSIUS
  WCI - WIND CHILL INDEX
   HX - HEAT INDEX
  VSB - VISIBILITY
$$




USA.gov is the U.S. government's official web portal to all federal, state and local government web resources and services.